User: anonymous   Login
Location: Horowhenua
(40.7500°S, 175.3333°E)
Time: 22:21:49
(UTC+00:00)
Language:

SL-24 DEB - Orbit

View from above orbital plane
View from above orbital plane
View from above satellite
View from above satellite

Ground track
Ground track

The orbit data is extracted from the following two-line orbital elements,

1 36510U 10013C   24108.01304944  .00007538  00000-0  13167-2 0  9993
2 36510  92.0247 107.8726 0019315 279.8472  80.0563 14.67817085748233
Epoch (UTC): 17 April 2024 00:18:47
Eccentricity: 0.0019315
inclination: 92.0247°
perigee height: 654 km
apogee height: 681 km
right ascension of ascending node: 107.8726°
argument of perigee: 279.8472°
revolutions per day: 14.67817085
mean anomaly at epoch: 80.0563°
orbit number at epoch: 74823

The dashed part of the orbit path shows where the satellite is in the earth's shadow,  

DLR